Location: Donnelly
(55.7333°N, 117.1167°W)
Time: 03:27:20
(UTC+00:00)

BlueWalker 3 - Visible Passes

Search period start: 29 May 2023 00:00
Search period end: 08 June 2023 00:00
Orbit: 495 x 512 km, 53.2° (Epoch: 28 May)

Date Brightness Start Highest point End Pass type
(mag) Time Alt. Az. Time Alt. Az. Time Alt. Az.
29 May 2.8 05:41:08 10° SSW 05:44:29 29° SSE 05:47:52 10° E visible
29 May 1.9 07:18:48 10° WSW 07:22:36 57° S 07:26:26 10° E visible
29 May 2.1 08:57:08 10° W 09:00:56 51° SSW 09:04:43 10° ESE visible
30 May 2.8 05:20:46 10° SSW 05:24:08 29° SSE 05:27:32 10° E visible
30 May 1.9 06:58:28 10° WSW 07:02:16 57° S 07:06:06 10° E visible
30 May 2.1 08:36:48 10° W 08:40:35 51° SSW 08:44:23 10° ESE visible
30 May 3.1 10:15:30 10° W 10:18:36 23° SSW 10:21:42 10° SSE visible
31 May 1.9 06:38:07 10° WSW 06:41:55 57° S 06:45:45 10° E visible
31 May 2.1 08:16:28 10° W 08:20:14 51° SSW 08:24:02 10° ESE visible
31 May 3.1 09:55:11 10° W 09:58:15 22° SSW 10:01:19 10° SSE visible
01 Jun 2.0 06:17:46 10° WSW 06:21:34 57° S 06:25:24 10° E visible
01 Jun 2.1 07:56:07 10° W 07:59:52 50° SSW 08:03:40 10° ESE visible
01 Jun 3.1 09:34:51 10° W 09:37:53 22° SSW 09:40:55 10° SSE visible
02 Jun 2.0 05:57:24 10° WSW 06:01:13 58° S 06:05:02 10° E visible
02 Jun 2.1 07:35:46 10° W 07:39:32 50° SSW 07:43:18 10° ESE visible
02 Jun 3.2 09:14:30 10° W 09:17:31 21° SW 09:20:31 10° SSE visible
03 Jun 2.0 05:37:03 10° WSW 05:40:51 58° S 05:44:40 10° E visible
03 Jun 2.1 07:15:24 10° W 07:19:09 49° SSW 07:22:55 10° ESE visible
03 Jun 3.2 08:54:10 10° W 08:57:08 21° SW 08:59:40 12° S visible
04 Jun 2.0 05:16:41 10° WSW 05:20:29 58° S 05:24:18 10° E visible
04 Jun 2.1 06:55:02 10° W 06:58:47 49° SSW 07:02:32 10° ESE visible
04 Jun 3.3 08:33:48 10° W 08:36:45 21° SW 08:38:17 17° S visible
05 Jun 2.2 06:34:39 10° W 06:38:24 48° SSW 06:42:09 10° ESE visible
05 Jun 3.3 08:13:27 10° W 08:16:22 20° SW 08:17:32 18° S visible
06 Jun 2.2 06:14:17 10° W 06:18:01 48° SSW 06:21:46 10° ESE visible
06 Jun 3.4 07:53:06 10° W 07:55:58 20° SW 07:57:04 18° SSW visible
07 Jun 2.3 05:53:53 10° W 05:57:37 47° SSW 06:01:22 10° ESE visible
07 Jun 3.4 07:32:43 10° W 07:35:34 20° SW 07:36:45 17° S visible
